Muscle Shoals, AL

11:44 PM CDT on April 23, 2017 (GMT -0500)
Northwest Alabama Regional

Weather History for KMSL - February, 2012

Change the Weather History Date:

Saturday, February 18, 2012

  Actual Average Record
Temperature  
Mean Temperature 47 °F 46 °F  
Max Temperature 57 °F 56 °F 76 °F (2000)
Min Temperature 37 °F 36 °F -2 °F (1958)
Degree Days  
Heating Degree Days 18 19  
Month to date heating degree days 328 379  
Since 1 July heating degree days 1952 2359  
Cooling Degree Days 0 0  
Month to date cooling degree days 0 0  
Year to date cooling degree days 0 0  
Moisture  
Dew Point 37 °F    
Average Humidity 70    
Maximum Humidity 92    
Minimum Humidity 47    
Precipitation  
Precipitation T in 0.16 in 4.41 in (1991)
Month to date precipitation 1.98 2.96  
Year to date precipitation 8.85 7.57  
Snow  
Snow 0.00 in - - ()
Month to date snowfall 0.0  
Since 1 July snowfall 0.1  
Snow Depth 0.00 in    
Sea Level Pressure  
Sea Level Pressure 29.99 in    
Wind  
Wind Speed 4 mph (NE)    
Max Wind Speed 13 mph    
Max Gust Speed 17 mph    
Visibility 10 miles    
Events Rain    
T = Trace of Precipitation, MM = Missing Value Source: NWS Daily Summary

Daily Weather History Graph

Daily Weather History Graph

Search for Another Location

Airport or City:

Trip Planner

Search our weather history database for the weather conditions in past years. The results will help you decide how hot, cold, wet, or windy it might be!

Date:

Astronomy

Feb. 18, 2012 Rise Set
Actual Time 6:33 AM CST 5:35 PM CST
Civil Twilight 6:07 AM CST 6:01 PM CST
Nautical Twilight 5:38 AM CST 6:31 PM CST
Astronomical Twilight 5:08 AM CST 7:00 PM CST
Moon 4:06 AM CST (2/18) 2:37 PM CST (2/18)
Length of Visible Light 11h 53m
Length of Day
11h 02m
Waning Crescent, 11% of the Moon is Illuminated
Feb 18
Waning Crescent
Feb 21
New
Feb 29
First Quarter
Mar 8
Full
Mar 14
Last Quarter

Hourly Weather History & Observations

Time (CST) Temp. Windchill Dew Point Humidity Pressure Visibility Wind Dir Wind Speed Gust Speed Precip Events Conditions
12:53 AM 45.0 °F 43.5 °F 39.0 °F 80% 30.08 in 10.0 mi NNE 3.5 mph - N/A   Clear
1:53 AM 43.0 °F - 37.0 °F 80% 30.07 in 10.0 mi Calm Calm - N/A   Clear
2:53 AM 39.9 °F 37.8 °F 36.0 °F 86% 30.08 in 10.0 mi SW 3.5 mph - N/A   Clear
3:53 AM 39.9 °F - 36.0 °F 86% 30.06 in 10.0 mi Calm Calm - N/A   Clear
4:53 AM 37.9 °F - 35.1 °F 89% 30.04 in 10.0 mi Calm Calm - N/A   Clear
5:53 AM 39.9 °F - 36.0 °F 86% 30.05 in 10.0 mi Calm Calm - N/A   Clear
6:53 AM 39.0 °F - 36.0 °F 89% 30.06 in 10.0 mi Calm Calm - N/A   Scattered Clouds
7:53 AM 46.0 °F 44.8 °F 37.9 °F 73% 30.07 in 10.0 mi NE 3.5 mph - N/A   Clear
8:53 AM 48.9 °F - 37.9 °F 66% 30.04 in 10.0 mi NE 5.8 mph - N/A   Clear
9:53 AM 52.0 °F - 39.0 °F 61% 30.03 in 10.0 mi NE 4.6 mph - N/A   Clear
10:53 AM 54.0 °F - 37.9 °F 55% 30.05 in 10.0 mi Calm Calm - N/A   Mostly Cloudy
11:53 AM 55.9 °F - 37.9 °F 51% 30.06 in 10.0 mi ENE 4.6 mph - N/A   Overcast
12:53 PM 57.0 °F - 39.0 °F 51% 30.01 in 10.0 mi ENE 5.8 mph - N/A   Scattered Clouds
1:53 PM 57.0 °F - 37.9 °F 49% 29.97 in 10.0 mi NE 3.5 mph - N/A   Overcast
2:53 PM 57.2 °F - 39.2 °F 51% 29.94 in 10.0 mi East 5.8 mph - N/A   Overcast
3:53 PM 55.9 °F - 41.0 °F 57% 29.96 in 10.0 mi Calm Calm - N/A   Overcast
4:53 PM 55.4 °F - 39.2 °F 54% 29.95 in 10.0 mi ENE 3.5 mph - N/A   Overcast
5:53 PM 55.0 °F - 39.0 °F 55% 29.93 in 10.0 mi NE 4.6 mph - N/A   Overcast
6:53 PM 55.0 °F - 37.0 °F 51% 29.90 in 10.0 mi NE 10.4 mph 16.1 mph N/A   Overcast
7:53 PM 53.1 °F - 36.0 °F 52% 29.92 in 10.0 mi NE 8.1 mph - 0.00 in Rain Light Rain
8:53 PM 51.1 °F - 36.0 °F 56% 29.91 in 10.0 mi ENE 6.9 mph - 0.00 in Rain Light Rain
9:53 PM 51.1 °F - 35.1 °F 54% 29.88 in 10.0 mi ENE 8.1 mph - 0.00 in   Overcast
10:53 PM 51.1 °F - 34.0 °F 52% 29.86 in 10.0 mi ENE 8.1 mph - N/A   Overcast
11:53 PM 51.1 °F - 35.1 °F 54% 29.85 in 10.0 mi NE 5.8 mph - N/A   Overcast